Find KUIPER-00512

NORAD ID: 68889 Int'l Des: 2026-095AB Owner: kuiper Country: USA Constellation: kuiper operational
LEOCIRCULAR

Live Position

Loading 3D Globe...

About KUIPER-00512

Description loading...

Upcoming Passes

Passes for default location (London). Set your location on the main map for personalized predictions.

Altitude History

Loading altitude history...

Two-Line Element Set

1 68889U 26095AB 26120.66670139 -.00007240 00000-0 -18458-3 0 9994
2 68889 51.8781 112.1605 0005435 109.7619 67.2236 15.37295397 1500
Epoch: Apr 30, 2026 • Age: 31 hours

Current Status

Altitude 455.9 km
Velocity 7.65 km/s
Sub-Earth Point 41.20°N, 51.04°W
Type internet

Most Searched